sat.trackr.live / text

‹ back to catalog

BEIDOU-2 M3 (C11)

NORAD 38250 · 2012-018A

PAYLOAD ACTIVE UNKNOWN

§ Identity

Operator
Country
PRC
Launch date
2012-04-29
Launch site
XICLF
Launch vehicle
Mass (kg)
RCS (m²)
7.14

Purposes: nav

External: N2YO · Heavens-Above · Gunter

§ Orbital elements

Epoch: 2026-05-24T13:30:03.625344Z

Period
773.24 min
Inclination
55.7786°
Eccentricity
0.0019723
Mean motion
1.86229567 rev/d
Perigee alt
21,473.2 km
Apogee alt
21,583.2 km
Semi-major
27,906.3 km
B*
0.0000e+0
RAAN
305.6708°
Arg perigee
275.7368°
Mean anomaly
84.0185°
Rev number
9,550

§ Raw data

BEIDOU-2 M3 (C11)1 38250U 12018A   26144.56254196 -.00000081  00000+0  00000+0 0  99932 38250  55.7786 305.6708 0019723 275.7368  84.0185  1.86229567 95508

JSON: /api/v1/satellites/38250 · /tle

For live sub-satellite position, see the globe view (requires WebGL).

§ Visibility from observer

Set your observer location to see the next 7 days of passes ≥ 10°. The values pass through the URL so the page stays shareable.

No JS? Fill the form by hand. The geolocation button needs JavaScript.